(211552) = 2003 SO52

Discovered at Palomar on 2003-09-18 by NEAT.

Orbit

Orbit type: Main Belt

Note: WebGL enabled browser required.

epoch2024-03-31.0
epoch JD2460400.5
perihelion date2023-02-09.90562
perihelion JD2459985.40562
argument of perihelion (°)13.30570
ascending node (°)29.06406
inclination (°)6.61501
eccentricity0.1361175
perihelion distance (AU)2.1112664
Tisserand w.r.t. Jupiter3.5
ΔV w.r.t. Earth (km/sec)9.3
semimajor axis (AU)2.4439278
mean anomaly (°)107.08241
mean daily motion (°/day)0.25797120
aphelion distance (AU)2.777
period (years)3.82
P-vector [x]0.73955536
P-vector [y]0.60652805
P-vector [z]0.29185886
Q-vector [x]-0.67076538
Q-vector [y]0.62805754
Q-vector [z]0.39448388
absolute magnitude16.6
phase slope0.15
uncertainty0
referenceMPEC 2024-F28
observations used716
oppositions14
arc length (days)7487
first opposition used2003
last opposition used2024
residual rms (arc-secs)0.72
perturbers coarse indicatorM-v
perturbers precise indicator003Ek
first observation date used2003-09-18.0
last observation date used2024-03-18.0
computer nameMPCLINUX
JD of orbit computation2456937.226979
perihelion JD uncertainty (days)9.2964E-05
argument of perihelion uncertainty (°)3.6495E-05
ascending node uncertainty (°)3.0009E-05
inclination uncertainty (°)5.7254E-06
eccentricity uncertainty 5.1978E-08
perihelion distance uncertainty (AU)1.3270E-07
Minimum Orbit Intersection Distances (in AU)
for orbit epoch: 2460400.5, reference: E2024-GF4
Mercury1.78925
Venus1.38982
Earth1.12029
Mars0.62969
Jupiter2.62346
Saturn6.76863
Uranus15.7906
Neptune27.6997

Observations

729 total observations over interval: 2003 09 18.47832 – 2024 03 18.168675
These data are available for download (format description).

Date (UT) J2000 RA J2000 Dec Magn Location Ref
2003 09 18.47832 01 12 02.70 +02 50 15.8 18.9   644 – Palomar Mountain/NEAT MPS 85385
2003 09 18.49962 01 12 01.74 +02 50 13.9 18.8   644 – Palomar Mountain/NEAT MPS 85385
2003 09 18.52096 01 12 00.79 +02 50 12.0 18.8   644 – Palomar Mountain/NEAT MPS 85385
2003 09 19.30328 01 11 26.64 +02 49 02.3 18.9   704 – Lincoln Laboratory ETS, New Mexico MPS 85385
2003 09 19.31581 01 11 26.07 +02 49 01.7 19.5   704 – Lincoln Laboratory ETS, New Mexico MPS 85385
2003 09 19.32791 01 11 25.48 +02 49 00.2 19.0   704 – Lincoln Laboratory ETS, New Mexico MPS 85385
2003 09 19.34003 01 11 25.00 +02 48 59.9 18.7   704 – Lincoln Laboratory ETS, New Mexico MPS 85385
2003 09 19.35219 01 11 24.39 +02 48 57.7 18.7   704 – Lincoln Laboratory ETS, New Mexico MPS 85385
2003 09 28.23569 01 03 54.63 +02 33 18.5 19.1   704 – Lincoln Laboratory ETS, New Mexico MPS 87007
2003 09 28.24363 01 03 54.24 +02 33 18.2 19.6 R 333 – Desert Eagle Observatory MPS 86289
2003 09 28.24566 01 03 54.10 +02 33 17.8 19.5 R 333 – Desert Eagle Observatory MPS 86289
2003 09 28.24908 01 03 53.83 +02 33 17.5 19.6   704 – Lincoln Laboratory ETS, New Mexico MPS 87007
2003 09 28.25799 01 03 53.46 +02 33 16.4 19.1 R 699 – Lowell Observatory-LONEOS MPS 87007
2003 09 28.26178 01 03 53.09 +02 33 15.9 19.5   704 – Lincoln Laboratory ETS, New Mexico MPS 87007
2003 09 28.26182 01 03 53.19 +02 33 16.0 19.7 R 333 – Desert Eagle Observatory MPS 86289
2003 09 28.26381 01 03 53.07 +02 33 16.1 19.7 R 333 – Desert Eagle Observatory MPS 86289
2003 09 28.27128 01 03 52.63 +02 33 15.2   699 – Lowell Observatory-LONEOS MPS 87007
2003 09 28.27438 01 03 52.35 +02 33 14.1 19.4   704 – Lincoln Laboratory ETS, New Mexico MPS 87007
2003 09 28.28006 01 03 52.13 +02 33 13.7 20.0 R 333 – Desert Eagle Observatory MPS 86289
2003 09 28.28209 01 03 52.05 +02 33 13.6 19.4 R 333 – Desert Eagle Observatory MPS 86289
2003 09 28.28458 01 03 51.88 +02 33 13.5   699 – Lowell Observatory-LONEOS MPS 87007
2003 09 28.28755 01 03 51.63 +02 33 13.6 19.4   704 – Lincoln Laboratory ETS, New Mexico MPS 87007
2003 09 28.29793 01 03 51.19 +02 33 11.6   699 – Lowell Observatory-LONEOS MPS 87007
2003 09 29.23459 01 02 58.61 +02 31 22.8 19.3   704 – Lincoln Laboratory ETS, New Mexico MPS 87007
2003 09 29.24730 01 02 57.89 +02 31 21.4 19.5   704 – Lincoln Laboratory ETS, New Mexico MPS 87007
2003 09 29.26026 01 02 57.19 +02 31 19.5 19.9   704 – Lincoln Laboratory ETS, New Mexico MPS 87007
2003 09 29.27279 01 02 56.43 +02 31 17.6 19.6   704 – Lincoln Laboratory ETS, New Mexico MPS 87007
2003 09 29.28528 01 02 55.69 +02 31 17.4 19.7   704 – Lincoln Laboratory ETS, New Mexico MPS 87007
2003 10 01.17042 01 01 08.18 +02 27 34.2 19.0 R 699 – Lowell Observatory-LONEOS MPS 87007
2003 10 01.18546 01 01 07.24 +02 27 32.7   699 – Lowell Observatory-LONEOS MPS 87007
2003 10 01.20041 01 01 06.44 +02 27 32.1   699 – Lowell Observatory-LONEOS MPS 87007
2003 10 01.21542 01 01 05.53 +02 27 29.5   699 – Lowell Observatory-LONEOS MPS 87007
2003 10 02.27924 01 00 03.60 +02 25 24.9 20.1 R 683 – Goodricke-Pigott Observatory, Tucson MPS 87007
2003 10 02.29266 01 00 02.75 +02 25 23.6 19.8 R 683 – Goodricke-Pigott Observatory, Tucson MPS 87007
2003 10 02.30606 01 00 01.94 +02 25 21.8 20.6 R 683 – Goodricke-Pigott Observatory, Tucson MPS 87007
2003 10 04.27068 00 58 06.03 +02 21 31.7 20.6 R 683 – Goodricke-Pigott Observatory, Tucson MPS 87333
2003 10 04.28407 00 58 05.15 +02 21 29.1 19.2 R 683 – Goodricke-Pigott Observatory, Tucson MPS 87333
2003 10 04.29748 00 58 04.30 +02 21 29.1 20.2 R 683 – Goodricke-Pigott Observatory, Tucson MPS 87333
2003 10 05.26864 00 57 06.55 +02 19 36.7 19.7 R 683 – Goodricke-Pigott Observatory, Tucson MPS 87333
2003 10 05.28203 00 57 05.84 +02 19 33.5 20.3 R 683 – Goodricke-Pigott Observatory, Tucson MPS 87333
2003 10 05.29547 00 57 04.85 +02 19 32.6 20.7 R 683 – Goodricke-Pigott Observatory, Tucson MPS 87333
2003 10 15.23328 00 47 11.51 +02 03 00.5 19.7 R 683 – Goodricke-Pigott Observatory, Tucson MPS 90499
2003 10 15.23674 00 47 11.30 +02 02 59.9 18.9 R 699 – Lowell Observatory-LONEOS MPS 88130
2003 10 15.24666 00 47 10.69 +02 02 59.5 19.8 R 683 – Goodricke-Pigott Observatory, Tucson MPS 90499
2003 10 15.25661 00 47 10.13 +02 03 00.0   699 – Lowell Observatory-LONEOS MPS 88130
2003 10 15.26003 00 47 09.90 +02 03 00.1 20.6 R 683 – Goodricke-Pigott Observatory, Tucson MPS 90499
2003 10 15.27649 00 47 08.75 +02 02 56.8   699 – Lowell Observatory-LONEOS MPS 88130
2003 10 15.29636 00 47 07.65 +02 02 56.5   699 – Lowell Observatory-LONEOS MPS 88130
2003 10 17.22648 00 45 16.63 +02 00 32.8 20.1 R 683 – Goodricke-Pigott Observatory, Tucson MPS 89443
2003 10 17.23988 00 45 15.88 +02 00 32.1 21.1 R 683 – Goodricke-Pigott Observatory, Tucson MPS 89443
2003 10 17.25324 00 45 15.00 +02 00 30.5 20.5 R 683 – Goodricke-Pigott Observatory, Tucson MPS 89443
2003 10 20.21635 00 42 30.25 +01 57 35.4 20.4 R 683 – Goodricke-Pigott Observatory, Tucson MPS 89443
2003 10 20.22975 00 42 29.45 +01 57 36.4 20.7 R 683 – Goodricke-Pigott Observatory, Tucson MPS 89443
2003 10 20.24313 00 42 28.67 +01 57 35.4 20.9 R 683 – Goodricke-Pigott Observatory, Tucson MPS 89443
2003 10 20.25887 00 42 27.75 +01 57 35.0 19.3   704 – Lincoln Laboratory ETS, New Mexico MPS 88130
2003 10 20.27088 00 42 27.10 +01 57 33.3 19.7   704 – Lincoln Laboratory ETS, New Mexico MPS 88130
2003 10 20.28275 00 42 26.41 +01 57 32.9 19.8   704 – Lincoln Laboratory ETS, New Mexico MPS 88130
2003 10 20.29434 00 42 25.72 +01 57 32.5 19.2   704 – Lincoln Laboratory ETS, New Mexico MPS 88130
2003 10 20.30602 00 42 25.10 +01 57 32.0 19.2   704 – Lincoln Laboratory ETS, New Mexico MPS 88130
2003 10 21.21786 00 41 36.35 +01 56 50.1 18.5   644 – Palomar Mountain/NEAT MPS 88130
2003 10 21.21929 00 41 36.26 +01 56 50.0 18.7   644 – Palomar Mountain/NEAT MPS 88130
2003 10 21.23874 00 41 35.17 +01 56 49.3 18.5   644 – Palomar Mountain/NEAT MPS 88130
2003 10 21.24016 00 41 35.09 +01 56 49.0 18.8   644 – Palomar Mountain/NEAT MPS 88130
2003 10 21.26049 00 41 33.96 +01 56 48.3 18.4   644 – Palomar Mountain/NEAT MPS 88130
2003 10 21.26189 00 41 33.85 +01 56 48.3 18.5   644 – Palomar Mountain/NEAT MPS 88130
2003 10 22.20968 00 40 44.06 +01 56 09.5 20.8 R 683 – Goodricke-Pigott Observatory, Tucson MPS 88130
2003 10 22.22308 00 40 43.21 +01 56 11.3 21.3 R 683 – Goodricke-Pigott Observatory, Tucson MPS 88130
2003 10 22.23646 00 40 42.55 +01 56 09.6 20.5 R 683 – Goodricke-Pigott Observatory, Tucson MPS 88130
2003 10 23.20635 00 39 52.66 +01 55 40.0 21.0 R 683 – Goodricke-Pigott Observatory, Tucson MPS 88130
2003 10 23.21975 00 39 51.83 +01 55 41.2 20.9 R 683 – Goodricke-Pigott Observatory, Tucson MPS 88130
2003 10 23.23311 00 39 51.12 +01 55 39.7 20.3 R 683 – Goodricke-Pigott Observatory, Tucson MPS 88130
2003 10 24.20303 00 39 02.27 +01 55 17.2 20.2 R 683 – Goodricke-Pigott Observatory, Tucson MPS 88130
2003 10 24.21644 00 39 01.64 +01 55 16.1 21.9 R 683 – Goodricke-Pigott Observatory, Tucson MPS 88130
2003 10 24.22983 00 39 00.80 +01 55 15.9 20.5 R 683 – Goodricke-Pigott Observatory, Tucson MPS 88130
2003 10 24.23177 00 39 00.79 +01 55 15.8 18.8   704 – Lincoln Laboratory ETS, New Mexico MPS 88130
2003 10 24.24479 00 39 00.11 +01 55 15.3 19.8   704 – Lincoln Laboratory ETS, New Mexico MPS 88130
2003 10 24.25787 00 38 59.41 +01 55 16.0 19.6   704 – Lincoln Laboratory ETS, New Mexico MPS 88130
2003 10 24.27102 00 38 58.70 +01 55 14.9 19.5   704 – Lincoln Laboratory ETS, New Mexico MPS 88130
2003 10 28.20844 00 35 54.00 +01 55 04.2 19.5   704 – Lincoln Laboratory ETS, New Mexico MPS 89443
2003 10 28.22105 00 35 53.46 +01 55 04.5 19.5   704 – Lincoln Laboratory ETS, New Mexico MPS 89443
2003 10 28.23485 00 35 52.78 +01 55 04.4 19.7   704 – Lincoln Laboratory ETS, New Mexico MPS 89443
2003 10 28.24804 00 35 52.19 +01 55 03.9 19.6   704 – Lincoln Laboratory ETS, New Mexico MPS 89443
2003 10 31.18033 00 33 50.17 +01 56 27.1 20.8 R 683 – Goodricke-Pigott Observatory, Tucson MPS 89443
2003 10 31.19374 00 33 49.59 +01 56 27.6 21.6 R 683 – Goodricke-Pigott Observatory, Tucson MPS 89443
2003 10 31.20712 00 33 49.04 +01 56 27.4 21.3 R 683 – Goodricke-Pigott Observatory, Tucson MPS 89443
